This demonstration page uses our WeatherBlox Daily Observations layout. Learn more.

Left ArrowRight Arrow

38.80484, -77.04692

Hourly Observations for April 13, 2016

Temp ( °F °C ) Dew Point ( °F °C ) Humidity (%) Winds ( mph kmh ) Pressure ( in mb ) Visibility ( mi km ) Precip ( " mm )
12:52 am 00:52 Clear 49 9.4 26 -3.3 41 41 N 10 17 30.31 1027 10 16 0.00 0.00
1:52 am 01:52 Clear 49 9.4 26 -3.3 41 41 NNE 14 22 30.31 1027 10 16 0.00 0.00
2:52 am 02:52 Clear 47 8.3 26 -3.3 44 44 NE 14 22 30.33 1027 10 16 0.00 0.00
3:52 am 03:52 Clear 46 7.8 25 -3.9 44 44 NE 9 15 30.36 1028 10 16 0.00 0.00
4:52 am 04:52 Clear 45 7.2 25 -3.9 46 46 NE 12 19 30.38 1029 10 16 0.00 0.00
5:52 am 05:52 Mostly Clear 43 6.1 25 -3.9 49 49 NNE 10 17 30.40 1029 10 16 0.00 0.00
6:52 am 06:52 Sunny 43 6.1 25 -3.9 49 49 NNE 8 13 30.42 1030 10 16 0.00 0.00
7:52 am 07:52 Sunny 45 7.2 25 -3.9 46 46 NNE 9 15 30.43 1030 10 16 0.00 0.00
8:52 am 08:52 Sunny 47 8.3 27 -2.8 46 46 NE 10 17 30.44 1031 10 16 0.00 0.00
9:52 am 09:52 Sunny 50 10 27 -2.8 41 41 NNE 8 13 30.44 1031 10 16 0.00 0.00
10:52 am 10:52 Mostly Sunny 51 10.6 28 -2.2 41 41 ENE 8 13 30.42 1030 10 16 0.00 0.00
11:52 am 11:52 Mostly Sunny 52 11.1 27 -2.8 38 38 Calm 30.41 1030 10 16 0.00 0.00
12:52 pm 12:52 Mostly Sunny 53 11.7 28 -2.2 38 38 VRB 3 6 30.39 1029 10 16 0.00 0.00
1:52 pm 13:52 Mostly Sunny 54 12.2 28 -2.2 37 37 VRB 3 6 30.35 1028 10 16 0.00 0.00
2:08 pm 14:08 Mostly Sunny 55 13 30 -1 38 38 VRB 3 6 30.33 1027 10 16 0.00 0.00
2:52 pm 14:52 Sunny 56 13.3 27 -2.8 33 33 NE 5 7 30.34 1027 10 16 0.00 0.00
3:52 pm 15:52 Mostly Sunny 57 13.9 28 -2.2 33 33 E 3 6 30.33 1027 10 16 0.00 0.00
4:52 pm 16:52 Mostly Sunny 57 13.9 27 -2.8 32 32 Calm 30.32 1027 10 16 0.00 0.00
5:52 pm 17:52 Mostly Sunny 57 13.9 27 -2.8 32 32 Calm 30.29 1026 10 16 0.00 0.00
6:52 pm 18:52 Mostly Sunny 57 13.9 28 -2.2 33 33 E 8 13 30.28 1026 10 16 0.00 0.00
7:52 pm 19:52 Partly Cloudy 53 11.7 31 -0.6 43 43 ESE 12 19 30.29 1026 10 16 0.00 0.00
8:52 pm 20:52 Mostly Cloudy 51 10.6 27 -2.8 39 39 E 6 9 30.32 1027 10 16 0.00 0.00
9:52 pm 21:52 Mostly Clear 50 10 26 -3.3 39 39 Calm 30.32 1027 10 16 0.00 0.00
10:52 pm 22:52 Clear 50 10 26 -3.3 39 39 Calm 30.32 1027 10 16 0.00 0.00
11:52 pm 23:52 Clear 50 10 29 -1.7 44 44 Calm 30.31 1026 10 16 0.00 0.00

Powered by AerisWeather